205  
ASUS45 KSLC 151210  
RWRUT  
 
UTAH REGIONAL WEATHER ROUNDUP  
NATIONAL WEATHER SERVICE SALT LAKE CITY UT  
600 AM MDT MON AUG 15 2022  
 
UTZ101>105-107>111-151300-  
 
NORTHERN UTAH  
 
CITY SKY/WX TMP DP RH WIND PRES REMARKS
 
BRIGHAM CITY PTCLDY 60 53 75 MISG 30.10S  
HILL AFB PTCLDY 64 52 64 E18G26 30.10S  
LOGAN CLEAR 58 55 90 N3 30.13R  
OGDEN PTCLDY 67 52 58 S7 30.09F  
SALT LAKE CITY MOCLDY 69 54 58 SW5 30.07F  
TOOELE VALLEY MOCLDY 63 55 77 S6 30.10S  
WENDOVER CLEAR 67 55 65 NE3 30.10R  
HEBER CITY N/A 52 46 82 CALM 30.21S  
WEST JORDAN MOCLDY 67 57 70 N3 30.12S  
 

 
 
UTZ024>027-106-112>120-151300-  
 
CENTRAL/NORTHEAST UTAH  
 
CITY SKY/WX TMP DP RH WIND PRES REMARKS
 
PROVO AIRPORT PTCLDY 64 53 67 CALM 30.12R  
MOAB/CANYONLAN PTCLDY 65 61 87 NW5 30.09R  
DELTA PTCLDY 63 54 72 E12 30.11R  
MANTI N/A 55 53 92 NE3 30.18R  
PRICE MOCLDY 63 55 75 CALM 30.19S  
VERNAL PTCLDY 62 53 72 CALM 30.19S  
 

 
 
UTZ121>131-151300-  
 
SOUTHERN UTAH  
 
CITY SKY/WX TMP DP RH WIND PRES REMARKS
 
BRYCE CANYON PTCLDY 54 51 90 W3 30.30R  
CEDAR CITY PTCLDY 60 57 89 CALM 30.16S  
MILFORD PTCLDY 63 56 78 S6 30.12S  
PANGUITCH MOCLDY 55 52 88 SE6 30.26R  
ST GEORGE SUNNY 73 65 75 N3 30.00S  
HANKSVILLE MOCLDY 68 61 77 NE7 30.12R  
KANAB PTCLDY 64 64 100 CALM 30.16S  
BLANDING N/A 66 52 61 NE5 30.25S  
 

 
 
REGIONAL REPORTS COLORADO/ARIZONA  
 
CITY SKY/WX TMP DP RH WIND PRES REMARKS
 
CRAIG, CO CLOUDY 58 55 90 E5 30.26R  
GRAND JUNCTION PTCLDY 67 60 78 N6 30.12R  
RIFLE, CO PTCLDY 61 57 87 SE5 30.20F  
MONTROSE, CO PTCLDY 60 58 92 SE7 30.19F  
CORTEZ, CO MOCLDY 64 58 80 NE6 30.18F  
COLORADO CITY N/A 66 61 82 E12 30.15S  
PAGE, AZ MOCLDY 75 56 51 CALM 30.06S  
GRAND CANYON CLOUDY 60 59 96 CALM 30.22S  
KINGMAN, AZ CLOUDY 67 65 93 CALM 30.03R  
FLAGSTAFF, AZ CLOUDY 57 56 96 CALM 30.24F  
 

 
 
REGIONAL REPORTS NEVADA/IDAHO/WYOMING  
 
CITY SKY/WX TMP DP RH WIND PRES REMARKS
 
LAS VEGAS, NV MOCLDY 79 62 56 NE7 29.94S  
ELY, NY CLEAR 51 49 92 S10 30.24S  
ELKO, NV CLEAR 52 46 80 NE6 30.14R  
POCATELLO, ID CLEAR 55 45 68 SW3 30.12R  
BURLEY, ID CLEAR 57 52 83 N5 30.08S  
EVANSTON, WY MOCLDY 55 51 86 E6 30.31S  
ROCK SPRINGS, MOCLDY 52 50 93 SW5 30.30S  
 

 
 
 
CLICK HERE TO GO TO PREVIOUS BULLETINS.

The Nexlab UT Page Main Text Page